Hineston, LA

6:38 AM CST on December 04, 2016 (GMT -0600)
Fort Polk

Weather History for KDNK - December, 2012

Change the Weather History Date:

Wednesday, December 5, 2012

  Actual Average (KPOE) Record (KPOE)
Temperature  
Mean Temperature 60 °F -  
Max Temperature 64 °F 61 °F 80 °F (1998)
Min Temperature 57 °F 42 °F 26 °F (2006)
Degree Days  
Heating Degree Days 4    
Growing Degree Days 10 (Base 50)    
Moisture  
Dew Point 57 °F    
Average Humidity 85    
Maximum Humidity 96    
Minimum Humidity 77    
Precipitation  
Precipitation 0.01 in - - ()
Sea Level Pressure  
Sea Level Pressure 30.12 in    
Wind  
Wind Speed 6 mph (NE)    
Max Wind Speed 10 mph    
Max Gust Speed -    
Visibility 10 miles    
Events Rain    
Averages and records for this station are not official NWS values.
T = Trace of Precipitation, MM = Missing Value Source: NWS Daily Summary

Daily Weather History Graph

Daily Weather History Graph

Search for Another Location

Airport or City:

Trip Planner

Search our weather history database for the weather conditions in past years. The results will help you decide how hot, cold, wet, or windy it might be!

Date:

Astronomy

Dec. 05, 2012 Rise Set
Actual Time 6:56 AM CST 5:09 PM CST
Civil Twilight 6:29 AM CST 5:35 PM CST
Nautical Twilight 5:59 AM CST 6:05 PM CST
Astronomical Twilight 5:30 AM CST 6:35 PM CST
Moon 11:39 PM CST (12/5) 11:37 AM CST (12/5)
Length of Visible Light 11h 05m
Length of Day
10h 12m
Waning Gibbous, 59% of the Moon is Illuminated
Dec 5
Waning Gibbous
Dec 6
Last Quarter
Dec 13
New
Dec 19
First Quarter
Dec 28
Full

Hourly Weather History & Observations

Time (CST) Temp. Dew Point Humidity Pressure Visibility Wind Dir Wind Speed Gust Speed Precip Events Conditions
12:18 AM 62.6 °F 60.8 °F 94% 30.19 in 10.0 mi NE 4.6 mph - 0.00 in Rain Light Rain
12:32 AM 60.8 °F 59.0 °F 94% 30.17 in 10.0 mi ESE 4.6 mph - 0.00 in Rain Light Rain
12:53 AM 61.0 °F 59.0 °F 93% 30.13 in 10.0 mi South 8.1 mph - 0.01 in Rain Light Rain
1:53 AM 60.1 °F 57.9 °F 93% 30.13 in 10.0 mi Calm Calm - 0.00 in   Partly Cloudy
2:40 AM 60.8 °F 59.0 °F 94% 30.11 in 8.0 mi East 4.6 mph - N/A   Partly Cloudy
2:53 AM 60.1 °F 57.9 °F 93% 30.12 in 10.0 mi NE 9.2 mph - N/A   Partly Cloudy
3:48 AM 59.0 °F 57.2 °F 94% 30.15 in 10.0 mi North 3.5 mph - N/A   Mostly Cloudy
3:53 AM 59.0 °F 57.9 °F 96% 30.15 in 10.0 mi North 3.5 mph - N/A   Mostly Cloudy
4:53 AM 60.1 °F 57.9 °F 93% 30.16 in 10.0 mi NNE 4.6 mph - N/A   Overcast
5:53 AM 60.1 °F 57.9 °F 93% 30.17 in 10.0 mi NE 5.8 mph - N/A   Overcast
6:32 AM 60.8 °F 57.2 °F 88% 30.18 in 10.0 mi NE 5.8 mph - N/A   Overcast
6:42 AM 60.8 °F 57.2 °F 88% 30.18 in 10.0 mi NE 4.6 mph - N/A   Overcast
6:53 AM 60.1 °F 57.0 °F 90% 30.17 in 10.0 mi ENE 8.1 mph - N/A   Overcast
8:53 AM 60.1 °F 57.0 °F 90% 30.20 in 10.0 mi NE 10.4 mph - N/A   Overcast
9:53 AM 63.0 °F 57.9 °F 84% 30.19 in 10.0 mi NNE 9.2 mph - N/A   Overcast
10:20 AM 62.6 °F 57.2 °F 82% 30.18 in 10.0 mi NNE 9.2 mph - N/A   Overcast
10:53 AM 64.0 °F 57.0 °F 78% 30.17 in 10.0 mi NNE 9.2 mph - N/A   Overcast
11:53 AM 63.0 °F 57.0 °F 81% 30.15 in 10.0 mi NE 10.4 mph - N/A   Overcast
12:44 PM 64.4 °F 57.2 °F 77% 30.12 in 10.0 mi NE 9.2 mph - N/A   Overcast
12:53 PM 64.0 °F 57.0 °F 78% 30.12 in 10.0 mi NNE 5.8 mph - N/A   Overcast
1:10 PM 64.4 °F 57.2 °F 77% 30.12 in 10.0 mi NE 6.9 mph - N/A   Overcast
1:53 PM 63.0 °F 57.0 °F 81% 30.11 in 10.0 mi ENE 8.1 mph - N/A   Overcast
2:24 PM 64.4 °F 57.2 °F 77% 30.10 in 10.0 mi NE 6.9 mph - N/A   Overcast
2:50 PM 64.4 °F 57.2 °F 77% 30.10 in 10.0 mi North 6.9 mph - N/A   Overcast
2:53 PM 64.0 °F 57.0 °F 78% 30.10 in 10.0 mi North 6.9 mph - N/A   Overcast
3:34 PM 62.6 °F 57.2 °F 82% 30.09 in 10.0 mi NE 5.8 mph - N/A   Overcast
3:48 PM 62.6 °F 57.2 °F 82% 30.08 in 10.0 mi NE 5.8 mph - N/A   Overcast
3:53 PM 63.0 °F 55.9 °F 78% 30.09 in 10.0 mi NNE 4.6 mph - N/A   Overcast
4:21 PM 62.6 °F 57.2 °F 82% 30.09 in 10.0 mi NNE 4.6 mph - N/A   Overcast
4:53 PM 63.0 °F 57.0 °F 81% 30.09 in 10.0 mi NNE 4.6 mph - N/A   Overcast
5:53 PM 62.1 °F 57.0 °F 84% 30.10 in 10.0 mi North 8.1 mph - N/A   Overcast
6:09 PM 62.6 °F 55.4 °F 77% 30.10 in 10.0 mi NNE 9.2 mph - N/A   Overcast
6:53 PM 61.0 °F 55.9 °F 83% 30.11 in 10.0 mi NNE 8.1 mph - N/A   Overcast
7:00 PM 60.8 °F 55.4 °F 82% 30.10 in 10.0 mi NNE 9.2 mph - N/A   Overcast
7:17 PM 60.8 °F 55.4 °F 82% 30.11 in 10.0 mi NNE 5.8 mph - N/A   Overcast
7:53 PM 60.1 °F 55.0 °F 83% 30.11 in 10.0 mi NE 8.1 mph - N/A   Overcast
8:53 PM 59.0 °F 55.0 °F 87% 30.10 in 10.0 mi NNE 5.8 mph - N/A   Overcast
9:33 PM 57.2 °F 53.6 °F 88% 30.10 in 10.0 mi NE 6.9 mph - N/A   Overcast
9:53 PM 57.9 °F 54.0 °F 87% 30.09 in 10.0 mi NE 6.9 mph - N/A   Overcast
10:53 PM 57.9 °F 54.0 °F 87% 30.08 in 10.0 mi NE 5.8 mph - N/A   Overcast
11:44 PM 57.2 °F 53.6 °F 88% 30.05 in 10.0 mi ENE 4.6 mph - N/A   Overcast
11:53 PM 57.0 °F 54.0 °F 89% 30.05 in 10.0 mi NE 4.6 mph - N/A   Overcast